| time (UTC) | temp F | wind direction | speed MPH | gust MPH | rain 1hr in | rain 24hr in | rain mn in | humidity % | barometer mb |
| 20260905052725 | 61 | 275 | 18.0 | 30.0 | 0.00 | 0.05 | 0.05 | 46 | 1014.2 |
| 20260905051825 | 62 | 274 | 16.0 | 29.0 | 0.00 | 0.05 | 0.05 | 46 | 1014.2 |
| 20260905050925 | 62 | 274 | 16.0 | 27.0 | 0.00 | 0.05 | 0.05 | 46 | 1014.2 |
| 20260905050025 | 62 | 273 | 15.0 | 28.0 | 0.00 | 0.05 | 0.05 | 49 | 1014.2 |
| 20260905045125 | 60 | 273 | 15.0 | 28.0 | 0.00 | 0.05 | 0.05 | 50 | 1014.2 |
| 20260905043325 | 61 | 273 | 18.0 | 34.0 | 0.00 | 0.05 | 0.05 | 48 | 1013.7 |
| 20260905042425 | 62 | 279 | 17.0 | 30.0 | 0.00 | 0.05 | 0.05 | 46 | 1013.5 |
| 20260905041525 | 62 | 281 | 17.0 | 30.0 | 0.00 | 0.05 | 0.05 | 46 | 1013.5 |
| 20260905040625 | 62 | 273 | 18.0 | 31.0 | 0.00 | 0.05 | 0.05 | 46 | 1013.4 |
| 20260905033925 | 60 | 273 | 17.0 | 29.0 | 0.00 | 0.05 | 0.05 | 49 | 1013.7 |
| 20260905033026 | 60 | 276 | 15.0 | 32.0 | 0.00 | 0.05 | 0.05 | 49 | 1013.8 |
| 20260905032125 | 60 | 272 | 16.0 | 29.0 | 0.00 | 0.05 | 0.05 | 50 | 1013.9 |
| 20260905030325 | 58 | 267 | 16.0 | 29.0 | 0.02 | 0.05 | 0.05 | 53 | 1013.7 |
| 20260905025425 | 59 | 267 | 12.0 | 26.0 | 0.02 | 0.05 | 0.05 | 54 | 1013.6 |
| 20260905023626 | 60 | 270 | 8.0 | 17.0 | 0.02 | 0.05 | 0.05 | 62 | 1013.8 |
| 20260905022725 | 57 | 270 | 13.0 | 22.0 | 0.02 | 0.06 | 0.05 | 63 | 1013.8 |
| 20260905021824 | 58 | 280 | 15.0 | 26.0 | 0.02 | 0.09 | 0.05 | 56 | 1014.0 |
| 20260905020925 | 59 | 283 | 15.0 | 27.0 | 0.00 | 0.10 | 0.03 | 53 | 1013.4 |
| 20260905020025 | 61 | 282 | 15.0 | 29.0 | 0.00 | 0.12 | 0.03 | 46 | 1013.3 |
| 20260905015125 | 65 | 277 | 14.0 | 26.0 | 0.00 | 0.13 | 0.03 | 45 | 1013.4 |
| 20260905014225 | 63 | 274 | 14.0 | 23.0 | 0.00 | 0.14 | 0.03 | 47 | 1013.4 |
| 20260905013324 | 63 | 272 | 11.0 | 17.0 | 0.00 | 0.16 | 0.03 | 47 | 1013.4 |
| 20260905012424 | 63 | 263 | 12.0 | 26.0 | 0.00 | 0.17 | 0.03 | 51 | 1013.3 |
| 20260905011524 | 60 | 264 | 16.0 | 29.0 | 0.00 | 0.17 | 0.03 | 53 | 1013.2 |
| 20260905010624 | 60 | 269 | 16.0 | 29.0 | 0.00 | 0.17 | 0.03 | 52 | 1012.8 |
| 20260905005724 | 62 | 272 | 11.0 | 25.0 | 0.00 | 0.17 | 0.03 | 56 | 1012.8 |
| 20260905004824 | 59 | 273 | 11.0 | 21.0 | 0.00 | 0.17 | 0.03 | 58 | 1012.5 |
| 20260905003924 | 57 | 270 | 11.0 | 22.0 | 0.00 | 0.17 | 0.03 | 64 | 1012.4 |
| 20260905003024 | 56 | 277 | 14.0 | 25.0 | 0.00 | 0.17 | 0.03 | 63 | 1012.4 |
| 20260905002124 | 56 | 272 | 13.0 | 24.0 | 0.01 | 0.17 | 0.03 | 62 | 1012.4 |
| 20260905001224 | 57 | 270 | 10.0 | 18.0 | 0.03 | 0.17 | 0.03 | 63 | 1012.2 |
| 20260904235424 | 56 | 281 | 11.0 | 17.0 | 0.03 | 0.17 | 0.03 | 64 | 1012.1 |
| 20260904234525 | 55 | 285 | 12.0 | 25.0 | 0.03 | 0.17 | 0.03 | 64 | 1011.9 |
| 20260904233624 | 56 | 281 | 10.0 | 17.0 | 0.03 | 0.17 | 0.03 | 64 | 1011.9 |
| 20260904231824 | 58 | 300 | 10.0 | 19.0 | 0.00 | 0.13 | 0.00 | 60 | 1011.2 |
| 20260904230924 | 58 | 307 | 10.0 | 17.0 | 0.00 | 0.13 | 0.00 | 58 | 1011.1 |
| 20260904230024 | 58 | 306 | 9.0 | 16.0 | 0.00 | 0.13 | 0.00 | 58 | 1011.1 |
| 20260904225124 | 58 | 300 | 9.0 | 20.0 | 0.00 | 0.13 | 0.00 | 58 | 1011.1 |
| 20260904224224 | 58 | 293 | 10.0 | 20.0 | 0.00 | 0.13 | 0.00 | 57 | 1011.2 |
| 20260904223324 | 58 | 295 | 10.0 | 17.0 | 0.00 | 0.13 | 0.00 | 58 | 1011.1 |
| 20260904222424 | 58 | 291 | 9.0 | 19.0 | 0.00 | 0.13 | 0.00 | 59 | 1011.1 |
| 20260904221524 | 57 | 296 | 8.0 | 15.0 | 0.00 | 0.13 | 0.00 | 59 | 1011.0 |
| 20260904220624 | 56 | 292 | 9.0 | 20.0 | 0.00 | 0.13 | 0.00 | 59 | 1010.8 |
| 20260904215724 | 57 | 291 | 9.0 | 17.0 | 0.00 | 0.13 | 0.00 | 59 | 1010.7 |
| 20260904214824 | 57 | 291 | 9.0 | 17.0 | 0.00 | 0.13 | 0.00 | 60 | 1010.7 |
| 20260904213025 | 56 | 296 | 8.0 | 16.0 | 0.00 | 0.13 | 0.00 | 59 | 1010.6 |
| 20260904212124 | 56 | 290 | 10.0 | 17.0 | 0.00 | 0.13 | 0.00 | 59 | 1010.5 |
| 20260904211225 | 56 | 286 | 9.0 | 15.0 | 0.00 | 0.13 | 0.00 | 58 | 1010.5 |
| 20260904210324 | 57 | 288 | 9.0 | 15.0 | 0.00 | 0.13 | 0.00 | 58 | 1010.5 |
| 20260904204524 | 57 | 283 | 10.0 | 19.0 | 0.00 | 0.13 | 0.00 | 58 | 1010.2 |
| 20260904203624 | 57 | 279 | 12.0 | 26.0 | 0.00 | 0.13 | 0.00 | 59 | 1010.1 |
| 20260904202724 | 57 | 279 | 11.0 | 19.0 | 0.00 | 0.13 | 0.00 | 59 | 1010.0 |
| 20260904201824 | 58 | 278 | 13.0 | 23.0 | 0.00 | 0.13 | 0.00 | 60 | 1009.9 |
| 20260904200925 | 58 | 278 | 12.0 | 26.0 | 0.00 | 0.13 | 0.00 | 60 | 1009.7 |
| 20260904200024 | 58 | 277 | 12.0 | 23.0 | 0.00 | 0.13 | 0.00 | 61 | 1009.7 |
| 20260904195124 | 58 | 283 | 12.0 | 22.0 | 0.00 | 0.13 | 0.00 | 61 | 1009.5 |
| 20260904194224 | 58 | 288 | 11.0 | 20.0 | 0.00 | 0.13 | 0.00 | 61 | 1009.5 |
| 20260904193326 | 58 | 297 | 11.0 | 20.0 | 0.00 | 0.13 | 0.00 | 61 | 1009.5 |
| 20260904192424 | 59 | 305 | 10.0 | 19.0 | 0.00 | 0.13 | 0.00 | 62 | 1009.2 |
| 20260904191524 | 59 | 309 | 6.0 | 13.0 | 0.00 | 0.13 | 0.00 | 62 | 1009.0 |
| 20260904190624 | 59 | 325 | 6.0 | 11.0 | 0.00 | 0.13 | 0.00 | 62 | 1009.0 |
| 20260904185724 | 59 | 330 | 5.0 | 12.0 | 0.00 | 0.13 | 0.00 | 61 | 1008.8 |
| 20260904183024 | 60 | 322 | 6.0 | 11.0 | 0.00 | 0.13 | 0.00 | 61 | 1008.6 |
| 20260904182123 | 60 | 315 | 5.0 | 10.0 | 0.00 | 0.13 | 0.00 | 61 | 1008.6 |
| 20260904181223 | 60 | 318 | 5.0 | 11.0 | 0.00 | 0.13 | 0.00 | 61 | 1008.5 |
| 20260904180324 | 60 | 320 | 5.0 | 13.0 | 0.00 | 0.13 | 0.00 | 61 | 1008.5 |
| 20260904175423 | 60 | 322 | 6.0 | 11.0 | 0.00 | 0.13 | 0.00 | 61 | 1008.3 |
| 20260904174523 | 60 | 325 | 5.0 | 11.0 | 0.00 | 0.13 | 0.00 | 61 | 1008.5 |
| 20260904173623 | 60 | 331 | 6.0 | 11.0 | 0.00 | 0.13 | 0.00 | 60 | 1008.5 |
| 20260904172723 | 60 | 329 | 4.0 | 11.0 | 0.00 | 0.13 | 0.00 | 60 | 1008.4 |
| 20260904171823 | 60 | 336 | 4.0 | 8.0 | 0.00 | 0.13 | 0.00 | 60 | 1008.4 |
| 20260904170023 | 60 | 346 | 3.0 | 9.0 | 0.00 | 0.13 | 0.00 | 59 | 1008.3 |
| 20260904165124 | 60 | 339 | 3.0 | 5.0 | 0.00 | 0.13 | 0.00 | 59 | 1008.5 |
| 20260904164223 | 60 | 347 | 4.0 | 9.0 | 0.00 | 0.13 | 0.00 | 59 | 1008.7 |
| 20260904161523 | 61 | 11 | 4.0 | 9.0 | 0.00 | 0.13 | 0.00 | 58 | 1008.6 |
| 20260904155723 | 61 | 358 | 2.0 | 5.0 | 0.00 | 0.13 | 0.00 | 58 | 1008.5 |
| 20260904154823 | 61 | 335 | 2.0 | 4.0 | 0.00 | 0.13 | 0.00 | 58 | 1008.3 |
| 20260904153923 | 61 | 333 | 3.0 | 6.0 | 0.00 | 0.13 | 0.00 | 57 | 1008.3 |
| 20260904153023 | 61 | 342 | 3.0 | 8.0 | 0.00 | 0.13 | 0.00 | 57 | 1008.1 |
| 20260904152123 | 61 | 339 | 3.0 | 6.0 | 0.00 | 0.13 | 0.00 | 57 | 1008.5 |
| 20260904150323 | 62 | 323 | 3.0 | 8.0 | 0.00 | 0.13 | 0.00 | 57 | 1008.6 |
| 20260904145424 | 61 | 319 | 4.0 | 8.0 | 0.00 | 0.13 | 0.00 | 57 | 1008.3 |
| 20260904144523 | 61 | 318 | 5.0 | 13.0 | 0.00 | 0.13 | 0.00 | 57 | 1008.3 |
| 20260904142723 | 61 | 14 | 6.0 | 11.0 | 0.00 | 0.13 | 0.13 | 57 | 1007.9 |
| 20260904141823 | 62 | 11 | 5.0 | 10.0 | 0.00 | 0.13 | 0.13 | 57 | 1007.9 |
| 20260904140923 | 62 | 5 | 6.0 | 13.0 | 0.00 | 0.13 | 0.13 | 57 | 1008.2 |
| 20260904140023 | 62 | 2 | 5.0 | 11.0 | 0.00 | 0.13 | 0.13 | 57 | 1008.3 |
| 20260904135123 | 62 | 357 | 5.0 | 11.0 | 0.00 | 0.13 | 0.13 | 57 | 1008.3 |
| 20260904134223 | 62 | 343 | 4.0 | 10.0 | 0.00 | 0.13 | 0.13 | 57 | 1008.3 |
| 20260904133323 | 62 | 347 | 5.0 | 10.0 | 0.00 | 0.13 | 0.13 | 57 | 1008.4 |
| 20260904131523 | 62 | 3 | 6.0 | 12.0 | 0.00 | 0.13 | 0.13 | 57 | 1008.2 |
| 20260904130623 | 62 | 5 | 7.0 | 13.0 | 0.00 | 0.13 | 0.13 | 56 | 1008.1 |
| 20260904125724 | 62 | 13 | 6.0 | 10.0 | 0.00 | 0.13 | 0.13 | 56 | 1008.0 |
| 20260904124823 | 63 | 24 | 7.0 | 13.0 | 0.00 | 0.13 | 0.13 | 56 | 1007.9 |
| 20260904123023 | 63 | 15 | 7.0 | 12.0 | 0.00 | 0.13 | 0.13 | 56 | 1008.3 |
| 20260904122123 | 63 | 13 | 8.0 | 15.0 | 0.00 | 0.13 | 0.13 | 55 | 1008.6 |
| 20260904121223 | 63 | 13 | 8.0 | 15.0 | 0.00 | 0.13 | 0.13 | 55 | 1008.5 |
| 20260904120323 | 64 | 19 | 8.0 | 16.0 | 0.00 | 0.13 | 0.13 | 55 | 1008.4 |
| 20260904115423 | 64 | 11 | 7.0 | 16.0 | 0.00 | 0.13 | 0.13 | 55 | 1008.7 |
| 20260904114523 | 64 | 5 | 8.0 | 15.0 | 0.00 | 0.13 | 0.13 | 55 | 1008.6 |
| 20260904113625 | 64 | 357 | 8.0 | 16.0 | 0.00 | 0.13 | 0.13 | 55 | 1008.9 |
| 20260904111823 | 64 | 357 | 8.0 | 14.0 | 0.00 | 0.13 | 0.13 | 55 | 1008.8 |
| 20260904110923 | 64 | 359 | 8.0 | 15.0 | 0.00 | 0.13 | 0.13 | 55 | 1009.0 |
| 20260904100622 | 65 | 7 | 8.0 | 15.0 | 0.00 | 0.13 | 0.13 | 56 | 1008.9 |
| 20260904095722 | 65 | 3 | 7.0 | 12.0 | 0.00 | 0.13 | 0.13 | 57 | 1008.9 |
| 20260904094822 | 65 | 5 | 6.0 | 14.0 | 0.00 | 0.13 | 0.13 | 57 | 1008.8 |
| 20260904093922 | 65 | 19 | 7.0 | 15.0 | 0.00 | 0.13 | 0.13 | 58 | 1008.7 |
| 20260904093025 | 65 | 16 | 5.0 | 11.0 | 0.00 | 0.13 | 0.13 | 58 | 1008.5 |
| 20260904092122 | 65 | 20 | 6.0 | 11.0 | 0.00 | 0.13 | 0.13 | 58 | 1008.4 |
| 20260904091222 | 65 | 20 | 8.0 | 15.0 | 0.00 | 0.13 | 0.13 | 58 | 1008.3 |
| 20260904085422 | 65 | 30 | 7.0 | 12.0 | 0.00 | 0.13 | 0.13 | 58 | 1008.4 |
| 20260904084522 | 65 | 38 | 5.0 | 10.0 | 0.00 | 0.13 | 0.13 | 58 | 1008.5 |
| 20260904082722 | 66 | 73 | 4.0 | 8.0 | 0.00 | 0.13 | 0.13 | 59 | 1008.5 |
| 20260904081822 | 66 | 76 | 3.0 | 7.0 | 0.00 | 0.13 | 0.13 | 58 | 1008.4 |
| 20260904080922 | 66 | 79 | 4.0 | 8.0 | 0.00 | 0.13 | 0.13 | 58 | 1008.5 |
| 20260904080022 | 66 | 72 | 4.0 | 9.0 | 0.00 | 0.13 | 0.13 | 57 | 1008.5 |
| 20260904075122 | 67 | 49 | 5.0 | 9.0 | 0.00 | 0.13 | 0.13 | 57 | 1008.4 |
| 20260904074222 | 67 | 46 | 5.0 | 9.0 | 0.00 | 0.13 | 0.13 | 57 | 1008.6 |
| 20260904071522 | 67 | 45 | 6.0 | 12.0 | 0.00 | 0.13 | 0.13 | 56 | 1008.8 |
| 20260904070622 | 68 | 49 | 5.0 | 11.0 | 0.00 | 0.13 | 0.13 | 56 | 1008.8 |
| 20260904065722 | 68 | 40 | 7.0 | 13.0 | 0.00 | 0.13 | 0.13 | 55 | 1009.0 |
| 20260904064822 | 68 | 23 | 5.0 | 12.0 | 0.00 | 0.13 | 0.13 | 56 | 1009.0 |
| 20260904063922 | 67 | 2 | 6.0 | 15.0 | 0.00 | 0.13 | 0.13 | 55 | 1009.0 |
| 20260904063022 | 68 | 8 | 6.0 | 15.0 | 0.00 | 0.13 | 0.13 | 53 | 1009.1 |
| 20260904060322 | 68 | 34 | 8.0 | 14.0 | 0.00 | 0.14 | 0.13 | 52 | 1009.3 |
| 20260904055422 | 68 | 29 | 9.0 | 15.0 | 0.00 | 0.14 | 0.13 | 52 | 1009.4 |
| 20260904054522 | 68 | 36 | 9.0 | 16.0 | 0.00 | 0.14 | 0.13 | 52 | 1009.3 |